EW0429 Weather Reports


time (UTC)temp
C
wind
direction
speed
KPH
gust
KPH
rain 1hr
cm
rain 24hr
cm
rain mn
cm
humidity
%
barometer
mb
20260504211156 13 250 3.2 16.1 0.00 0.00 0.00 44 1000.4
20260504205656 13 250 6.4 22.5 0.00 0.00 0.00 43 1000.3
20260504204156 13 278 4.8 17.7 0.00 0.00 0.00 44 1000.2
20260504202650 12 19 6.4 19.3 0.00 0.00 0.00 43 1000.2
20260504201152 13 256 4.8 19.3 0.00 0.00 0.00 44 1000.3
20260504195650 13 236 3.2 17.7 0.00 0.00 0.00 44 1000.3
20260504192651 12 296 8.0 29.0 0.00 0.08 0.00 44 1000.3
20260504191150 12 245 9.7 25.7 0.00 0.08 0.00 45 1000.2
20260504190340 12 293 6.4 22.5 0.00 0.08 0.00 42 1000.2
20260504184151 12 242 4.8 20.9 0.00 0.08 0.00 35 1000.2
20260504183339 12 236 9.7 24.1 0.00 0.08 0.00 33 1000.2
20260504181150 13 281 6.4 22.5 0.00 0.08 0.00 32 1000.4
20260504175651 13 313 4.8 30.6 0.00 0.08 0.00 31 1000.3
20260504174150 13 273 6.4 22.5 0.00 0.08 0.00 30 1000.5
20260504172650 13 304 4.8 17.7 0.00 0.08 0.00 31 1000.4
20260504151146 11 18 11.3 29.0 0.00 0.08 0.00 31 1000.9
20260504141146 10 0 8.0 25.7 0.00 0.08 0.00 36 1001.4
20260504081119 1 333 0.0 0.0 0.00 0.08 0.00 78 1001.6
20260504045610 3 17 0.0 4.8 0.00 0.08 0.00 72 1002.0
20260504044109 3 13 1.6 11.3 0.00 0.08 0.00 71 1002.1
20260504042606 3 22 3.2 12.9 0.00 0.08 0.00 71 1002.1
20260504041056 3 32 3.2 14.5 0.00 0.08 0.00 69 1002.2
20260504040253 4 355 6.4 17.7 0.00 0.08 0.08 68 1002.3
20260504034057 4 0 8.0 20.9 0.00 0.08 0.08 67 1002.2
20260504032602 4 44 8.0 24.1 0.00 0.08 0.08 66 1002.2
20260504031056 5 20 9.7 20.9 0.00 0.08 0.08 66 1002.2
20260504025552 5 5 9.7 22.5 0.00 0.08 0.08 66 1002.1
20260504024747 5 336 11.3 20.9 0.00 0.08 0.08 67 1002.0
20260504023254 5 355 9.7 22.5 0.00 0.08 0.08 67 1002.1
20260504021052 5 355 9.7 24.1 0.00 0.08 0.08 66 1002.1
20260504015552 6 0 11.3 24.1 0.00 0.08 0.08 65 1002.2
20260504014052 6 355 11.3 24.1 0.00 0.08 0.08 65 1002.2
20260504011053 6 5 9.7 17.7 0.00 0.08 0.08 66 1002.1
20260504005554 7 5 8.0 19.3 0.00 0.08 0.08 69 1001.9
20260504004057 6 355 3.2 8.0 0.00 0.08 0.08 81 1001.8
20260504002552 6 355 1.6 8.0 0.00 0.08 0.08 84 1001.7
20260504001053 6 13 0.0 3.2 0.00 0.08 0.08 85 1001.6
20260503235551 6 13 0.0 1.6 0.00 0.08 0.08 84 1001.6
20260503234049 6 13 0.0 8.0 0.00 0.08 0.08 84 1001.5
20260503232549 7 62 0.0 8.0 0.00 0.08 0.08 83 1001.4
20260503231049 7 47 1.6 12.9 0.00 0.08 0.08 83 1001.4
20260503230243 7 0 3.2 12.9 0.00 0.08 0.08 83 1001.4
20260503224048 7 5 1.6 12.9 0.00 0.08 0.08 84 1001.5
20260503222549 7 16 3.2 11.3 0.00 0.08 0.08 85 1001.6
20260503221048 7 5 3.2 12.9 0.00 0.08 0.08 84 1001.7
20260503215548 7 350 1.6 9.7 0.00 0.08 0.08 84 1001.7
20260503214046 7 350 1.6 9.7 0.00 0.08 0.08 83 1001.8
20260503212542 6 341 1.6 9.7 0.00 0.08 0.08 86 1002.0